541  
ASUS42 KILM 160213  
RWRILM  
RWRILM  
REGIONAL HOURLY WEATHER ROUNDUP  
NATIONAL WEATHER SERVICE WILMINGTON NC  
1000 PM EDT WED AUG 15 2018  
 
NOTE: "FAIR" INDICATES FEW OR NO CLOUDS BELOW 12,000 FEET WITH NO  
SIGNIFICANT WEATHER AND/OR S TO VISIBILITY
.  
   
..............WFO WILMINGTON COUNTY WARNING AREA............
 
 
   
.....COASTAL NC AND SC COUNTIES...
 
 
 
CITY SKY/WX TMP DP RH WIND PRES REMARKS
 
WILMINGTON FAIR 80 75 84 SW6 30.09R  
N MYRTLE BEACH FAIR 81 78 91 SW12 30.09R  
MYRTLE BEACH FAIR 80 76 87 SW5 30.11R  
   
.....INLAND NC AND SC COUNTIES....
 
 
 
CITY SKY/WX TMP DP RH WIND PRES REMARKS
 
LUMBERTON FAIR 77 71 82 N5 30.08R  
ELIZABETHTOWN FAIR 80 74 83 W5 30.09R  
WHITEVILLE FAIR 79 71 77 S5 30.08S  
FLORENCE FAIR 80 72 76 SW6 30.08R  
DARLINGTON FAIR 78 75 90 CALM 30.08R  
KINGSTREE NOT AVBL  
HARTSVILLE CLOUDY 79 68 69 CALM 30.09R  
BENNETTSVILLE MOCLDY 75 73 94 CALM 30.07S  
CONWAY FAIR 79 79 100 S3 30.10R  
GEORGETOWN FAIR 77 77 100 CALM 30.11S  
MARION FAIR 77 73 88 CALM 30.08R  
   
...................REST OF NORTH CAROLINA...................
 
 
   
........EASTERN NC......
 
 
 
CITY SKY/WX TMP DP RH WIND PRES REMARKS
 
CAPE HATTERAS FAIR 81 76 84 SW8 30.09R  
JACKSONVILLE CLOUDY 76 68 76 VRB7G18 30.11R THUNDER  
MOREHEAD CITY FAIR 81 78 91 SW12 30.09R  
KENANSVILLE MOCLDY 77 72 83 SE3 30.10R  
NEW BERN CLOUDY 75 70 84 S8 30.08F  
ELIZABETH CITY FAIR 78 76 93 S7 30.08R  
   
........CENTRAL NC......
 
 
 
CITY SKY/WX TMP DP RH WIND PRES REMARKS
 
RALEIGH DURHAM MOCLDY 74 70 87 CALM 30.09R  
ROCKY MOUNT FAIR 75 74 96 CALM 30.08S  
ROANOKE RAPIDS NOT AVBL  
FAYETTEVILLE CLOUDY 75 70 84 SE3 30.07S  
HOFFMAN FAIR 78 72 82 CALM 30.09R  
   
........WESTERN NC......
 
 
 
CITY SKY/WX TMP DP RH WIND PRES REMARKS
 
CHARLOTTE MOCLDY 79 71 76 CALM 30.11R  
GREENSBORO MOCLDY 79 66 64 CALM 30.11R  
HICKORY NOT AVBL  
BOONE NOT AVBL  
ASHEVILLE NOT AVBL  
   
....................REST OF SOUTH CAROLINA..................
 
 
   
........EASTERN SC......
 
 
 
CITY SKY/WX TMP DP RH WIND PRES REMARKS
 
CHARLESTON FAIR 79 77 94 S7 30.10R  
BEAUFORT MCAS FAIR 81 77 88 S3 30.10R  
HILTON HEAD FAIR 81 73 78 SW6 30.12R  
   
........CENTRAL SC......
 
 
 
CITY SKY/WX TMP DP RH WIND PRES REMARKS
 
COLUMBIA FAIR 82 73 74 CALM 30.08R  
ORANGEBURG FAIR 80 74 81 S8 30.09R  
SUMTER SHAW FAIR 79 71 75 S3 30.08R  
   
........WESTERN SC......
 
 
 
CITY SKY/WX TMP DP RH WIND PRES REMARKS
 
GREENVILLE NOT AVBL  
ROCK HILL FAIR 73 71 93 CALM 30.12R  
ANDERSON CLOUDY 77 70 79 CALM 30.11R  
CLEMSON NOT AVBL  
GREENWOOD FAIR 75 70 84 CALM 30.12R  
 
   
..................COASTAL AND OFFSHORE REPORTS...............
 
 
   
...............LOCAL PIERS AND NC RESERVE.............
 
 
 
STATION/POSITION TIME SKY/WX TEMP WIND PRES VSBY
 
AIR SEA DIR/SP/G  
(UTC) (F) (DEG/KT/KT) (MB) (MI)  
JOHNY MRCER PIER 0148 81 82 210/ 12/ 14 1019.2R  
NC RESRV MASNBRO NOT AVBL  
OCEAN CREST PIER NOT AVBL  
SPRINGMAID PIER 0148 1022.5R  
 
   
...............COASTAL AND OFFSHORE BUOYS.............
 
 
 
STATION/POSITION TIME SKY/WX TEMP WIND PRES VSBY
 
AIR SEA DIR/SP/G  
(UTC) (F) (DEG/KT/KT) (MB) (MI)  
DIMNDSHOAL 41025 0200 83 84 230/ 12/ 14 1019.2  
CAPE LOOKOUT 0200 240/ 10/ 12 1019.2R  
ONSLOW BAY 41036 NOT AVBL  
ONSLOW BAY 41064 0108 83 84 220/ 14/ 17 1018.5R  
ONSLOW BAY 41159 0130 84 N/A  
WVE H/P(F/S)= 4/ 6  
 
MASNBO INL 41110 0130 81 N/A  
WVE H/P(F/S)= 3/ 5  
 
WILM HARBR 41108 0130 84 N/A  
WVE H/P(F/S)= 4/ 5  
 
27SE WRITB 41037 0108 82 83 220/ 16/ 21 1018.8R  
FRYING PAN 41013 0200 83 84 220/ 17/ 21 1019.4  
SUNST NRSH 41024 0108 82 84 230/ 16/ 23 1018.5R  
CAPRS NRSH 41029 0108 83 82 240/ 12/ 16 1018.4R  
EDISTO 41004 0200 83 84 220/ 14/ 16 1020.0  
 
   
.........OFFSHORE BUOYS BEYOND 100 NM OFFSHORE........
 
   
....IN A TRIANGLE---HAT TO BERMUDA TO BAHAMAS TO HAT..
 
 
 
 
STATION/POSITION TIME SKY/WX TEMP WIND PRES VSBY
 
AIR SEA DIR/SP/G  
(UTC) (F) (DEG/KT/KT) (MB) (MI)  
150E HAT 41001 NOT AVBL  
W BERMUDA 41048 0200 83 290/ 6/ 8 1022.9  
ATLANTIC S 41049 0150 84 360/ 12/ 14 1021.7R  
WVE H/P(F/S)= 3/ 8 SWL H/P/D(F/S/D)= 2/100/ 8  
 
E BAHAMAS 41046 0150 84 80/ 12/ 14 1021.3R  
WVE H/P(F/S)= 4/ 8 SWL H/P/D(F/S/D)= 3/110/ 8  
 
NE BAHAMAS 41047 0150 100/ 12/ 14 1022.8R  
WVE H/P(F/S)= 4/ 8 SWL H/P/D(F/S/D)= 3/130/ 8  
 
120E CANVRL41010 0150 84 85 140/ 10/ 12 1021.3R  
WVE H/P(F/S)= 3/ 8 SWL H/P/D(F/S/D)= 3/120/ 8  
 
END  
 
 
CLICK HERE TO GO TO PREVIOUS BULLETINS.

The Nexlab NC Page
The Nexlab SC Page Main Text Page